User: anonymous   Login
Location: Quebec
(46.8000°N, 71.2500°W)
Time: 19:34:16
(UTC-05:00)
Language:

CZ-4B R/B - Orbit

View from above orbital plane
View from above orbital plane
View from above satellite
View from above satellite

Ground track
Ground track

The orbit data is extracted from the following two-line orbital elements,

1 29093U 06015B   15059.25544939  .00010587  00000-0  33512-3 0  9994
2 29093 097.4986 145.2072 0083162 079.1578 343.4322 15.29553319488640
Epoch (UTC): 28 February 2015 06:07:50
Eccentricity: 0.0083162
inclination: 97.4986°
perigee height: 420 km
apogee height: 534 km
right ascension of ascending node: 145.2072°
argument of perigee: 79.1578°
revolutions per day: 15.29553319
mean anomaly at epoch: 343.4322°
orbit number at epoch: 48864

The dashed part of the orbit path shows where the satellite is in the earth's shadow,  

DLR